Regional Weather Roundup
Issued by NWS

Home | Current Version | Previous Version | Text Only | Print | Product List | Glossary Off
Versions: 1 2 3 4 5 6 7 8 9 10 11 12 13 14 15 16 17 18 19 20 21 22 23 24 25 26 27 28 29 30 31 32 33 34 35 36 37 38 39 40 41 42 43 44 45 46 47 48 49 50

000
ASUS45 KSLC 050710
RWRUT

UTAH REGIONAL WEATHER ROUNDUP
NATIONAL WEATHER SERVICE SALT LAKE CITY UT
1200 AM MST THU MAR 05 2015

UTZ001>011-023>025-050800-

NORTHERN UTAH

CITY           SKY/WX    TMP DP  RH WIND       PRES   REMARKS
BRIGHAM CITY   CLEAR     27  18  68 CALM      30.36R
HILL AFB       CLEAR     25  13  59 E10       30.34R WCI  15
LOGAN          CLEAR     25  19  78 CALM      30.34R
OGDEN          CLEAR     26  17  68 S7        30.34R WCI  18
PROVO AIRPORT  CLEAR     27  19  74 CALM      30.36R
SALT LAKE CITY CLEAR     28  19  69 SE6       30.35R WCI  22
VERNAL         PTCLDY    21  12  68 NW3       30.30R
WENDOVER       CLEAR     28  16  59 NE6       30.34R WCI  22
HEBER CITY     CLEAR     14  10  85 CALM      30.34R
WEST JORDAN    CLEAR     27  18  69 S3        30.35R

$$

UTZ012>022-026-027-050800-

SOUTHERN/CENTRAL UTAH

CITY           SKY/WX    TMP DP  RH WIND       PRES   REMARKS
BLANDING       CLEAR     20  14  75 N5        30.35S WCI  14
BRYCE CANYON   PTCLDY    -1  -4  87 W12       30.29S WCI -18
CEDAR CITY     PTCLDY    13   9  84 MISG      30.31S
DELTA          CLEAR     29  20  70 S8        30.34S WCI  21
HANKSVILLE     CLEAR     30  27  86 CALM      30.32R
MILFORD        CLEAR     24  17  74 CALM      30.34R
MOAB/CYNLANDS  CLEAR     30  18  60 CALM      30.27R
PRICE          CLEAR     24  11  57 NE6       30.26R WCI  17
ST GEORGE      SUNNY     39  21  48 N8        30.34R WCI  34
KANAB          CLEAR     30  19  64 NW14      30.34S WCI  20

$$

REGIONAL REPORTS     COLORADO/ARIZONA

CITY           SKY/WX    TMP DP  RH WIND       PRES   REMARKS
CRAIG, CO      PTCLDY     6   0  76 CALM      30.30R
GRAND JUNCTION CLEAR     26  13  57 E12       30.31R WCI  16
RIFLE          PTCLDY    20   7  57 CALM      30.34R
MONTROSE       PTCLDY    23  13  65 SE9       30.33R WCI  13
CORTEZ         CLEAR     21  13  71 NE6       30.29R WCI  13
PAGE, AZ       CLEAR     36  20  52 CALM      30.29R
GRAND CANYON   PTCLDY    12   9  87 NE5       30.28S WCI   4
KINGMAN        CLEAR     39  25  57 E6        30.26R WCI  35
FLAGSTAFF      PTCLDY    23   8  52 NE8       30.26  WCI  14

$$

REGIONAL REPORTS    NEVADA/IDAHO/WYOMING

CITY           SKY/WX    TMP DP  RH WIND       PRES   REMARKS
LAS VEGAS, NV  CLEAR     50  25  37 S8        30.24R
ELY            CLEAR     17  13  84 S10       30.32R WCI   5
ELKO           CLEAR     23  15  71 CALM      30.31R
POCATELLO, ID  CLEAR     27  10  49 S8        30.31R WCI  19
EVANSTON, WY   PTCLDY    13   7  77 SW12      30.26S WCI  -1
ROCK SPRINGS   PTCLDY    14   7  73 W16       30.21R WCI  -2

$$


USA.gov is the U.S. government's official web portal to all federal, state and local government web resources and services.